DW7835 Weather Reports


time (UTC)temp
F
wind
direction
speed
knots
gust
knots
rain 1hr
in
rain 24hr
in
rain mn
in
humidity
%
barometer
mb
20260507105504 66 306 10.4 11.3 0.00 0.00 0.00 41 1015.6
20260507105409 65 298 8.7 10.4 0.00 0.00 0.00 41 1015.6
20260507104906 65 324 9.6 11.3 0.00 0.00 0.00 41 1015.5
20260507104403 65 324 9.6 11.3 0.00 0.00 0.00 41 1015.5
20260507104024 67 315 10.4 13.0 0.00 0.00 0.00 41 1015.6
20260507103858 65 322 9.6 10.4 0.00 0.00 0.00 41 1015.5
20260507103503 67 310 11.3 13.0 0.00 0.00 0.00 40 1015.6
20260507103356 65 316 10.4 11.3 0.00 0.00 0.00 40 1015.5
20260507103024 67 310 11.3 13.0 0.00 0.00 0.00 40 1015.6
20260507102852 65 307 10.4 11.3 0.00 0.00 0.00 40 1015.8
20260507102503 67 316 11.3 13.0 0.00 0.00 0.00 41 1015.8
20260507102348 65 324 10.4 11.3 0.00 0.00 0.00 41 1015.7
20260507102003 67 316 10.4 13.0 0.00 0.00 0.00 41 1015.5
20260507101845 65 322 10.4 11.3 0.00 0.00 0.00 41 1015.7
20260507101503 67 310 10.4 13.0 0.00 0.00 0.00 40 1015.7
20260507101345 65 326 10.4 11.3 0.00 0.00 0.00 40 1015.6
20260507101003 67 308 9.6 11.3 0.00 0.00 0.00 40 1015.6
20260507100842 65 300 10.4 11.3 0.00 0.00 0.00 40 1015.7
20260507100503 67 318 9.6 10.4 0.00 0.00 0.00 40 1015.6
20260507100340 65 321 8.7 8.7 0.00 0.00 0.00 40 1015.6
20260507100003 67 320 8.7 10.4 0.00 0.00 0.00 40 1015.6
20260507095838 65 318 7.0 7.8 0.00 0.00 0.00 40 1015.7
20260507095503 67 316 8.7 10.4 0.00 0.00 0.00 40 1015.5
20260507095334 65 321 8.7 10.4 0.00 0.00 0.00 40 1015.6
20260507094831 65 303 7.8 8.7 0.00 0.00 0.00 40 1015.9
20260507094503 67 314 7.8 8.7 0.00 0.00 0.00 39 1016.0
20260507094328 65 317 7.8 8.7 0.00 0.00 0.00 39 1015.7
20260507094003 67 313 8.7 10.4 0.00 0.00 0.00 39 1015.6
20260507093825 65 318 7.0 7.8 0.00 0.00 0.00 39 1015.8
20260507093503 67 314 7.8 10.4 0.00 0.00 0.00 39 1015.6
20260507093324 65 324 7.8 8.7 0.00 0.00 0.00 39 1015.5
20260507093003 66 319 7.8 8.7 0.00 0.00 0.00 40 1015.7
20260507092821 64 328 7.0 7.8 0.00 0.00 0.00 40 1015.6
20260507092503 66 314 7.8 10.4 0.00 0.00 0.00 40 1015.7
20260507092318 64 326 7.0 7.8 0.00 0.00 0.00 40 1015.6
20260507092004 67 314 8.7 10.4 0.00 0.00 0.00 39 1016.0
20260507091814 65 301 6.1 6.1 0.00 0.00 0.00 39 1015.6
20260507091524 67 312 9.6 11.3 0.00 0.00 0.00 39 1015.7
20260507091310 65 314 8.7 10.4 0.00 0.00 0.00 39 1015.9
20260507091003 67 313 9.6 11.3 0.00 0.00 0.00 39 1015.8
20260507090805 65 304 7.8 8.7 0.00 0.00 0.00 38 1015.7
20260507090503 67 314 10.4 11.3 0.00 0.00 0.00 38 1016.1
20260507090302 65 323 8.7 8.7 0.00 0.00 0.00 38 1015.8
20260507090003 67 313 9.6 11.3 0.00 0.00 0.00 39 1015.8
20260507085759 65 297 8.7 10.4 0.00 0.00 0.00 39 1015.9
20260507085503 67 314 9.6 11.3 0.00 0.00 0.00 39 1015.8
20260507085256 65 310 7.8 8.7 0.00 0.00 0.00 39 1015.8
20260507085004 67 316 9.6 11.3 0.00 0.00 0.00 38 1015.8
20260507084753 65 305 8.7 10.4 0.00 0.00 0.00 38 1015.9
20260507084503 67 313 10.4 13.0 0.00 0.00 0.00 37 1016.1
20260507084249 66 322 7.8 7.8 0.00 0.00 0.00 36 1015.7
20260507084003 68 306 11.3 13.0 0.00 0.00 0.00 37 1016.0
20260507083747 66 321 8.7 8.7 0.00 0.00 0.00 36 1015.8
20260507083503 68 301 11.3 13.0 0.00 0.00 0.00 36 1016.0
20260507083244 65 312 11.3 11.3 0.00 0.00 0.00 36 1015.8
20260507083003 67 301 12.2 13.9 0.00 0.00 0.00 36 1015.8
20260507082740 65 284 8.7 10.4 0.00 0.00 0.00 35 1015.7
20260507082503 67 306 13.0 13.9 0.00 0.00 0.00 36 1015.8
20260507082235 65 296 11.3 13.0 0.00 0.00 0.00 35 1015.9
20260507082026 67 305 11.3 13.9 0.00 0.00 0.00 35 1016.0
20260507081732 65 302 11.3 13.0 0.00 0.00 0.00 35 1015.9
20260507081524 67 306 9.6 11.3 0.00 0.00 0.00 34 1016.0
20260507081228 65 300 7.8 7.8 0.00 0.00 0.00 33 1015.9
20260507081003 67 307 10.4 11.3 0.00 0.00 0.00 34 1016.1
20260507080725 66 319 9.6 10.4 0.00 0.00 0.00 33 1016.0
20260507080503 67 304 10.4 11.3 0.00 0.00 0.00 33 1016.3
20260507080221 65 297 9.6 11.3 0.00 0.00 0.00 31 1015.7
20260507080004 67 306 8.7 10.4 0.00 0.00 0.00 31 1015.8
20260507075717 65 320 8.7 10.4 0.00 0.00 0.00 30 1015.9
20260507075503 67 305 8.7 10.4 0.00 0.00 0.00 30 1015.8
20260507075214 66 292 7.8 7.8 0.00 0.00 0.00 29 1015.9
20260507075005 68 305 7.8 10.4 0.00 0.00 0.00 29 1016.0
20260507074710 66 309 6.1 7.8 0.00 0.00 0.00 29 1015.9
20260507074503 68 304 7.0 8.7 0.00 0.00 0.00 29 1016.0
20260507074209 66 307 7.0 7.8 0.00 0.00 0.00 28 1015.8
20260507074003 68 302 7.0 8.7 0.00 0.00 0.00 28 1016.1
20260507073704 66 287 5.2 6.1 0.00 0.00 0.00 28 1015.8
20260507073503 68 299 7.8 10.4 0.00 0.00 0.00 28 1016.1
20260507073201 66 282 5.2 5.2 0.00 0.00 0.00 28 1016.0
20260507073003 68 293 7.8 10.4 0.00 0.00 0.00 27 1016.0
20260507072659 66 301 8.7 10.4 0.00 0.00 0.00 28 1015.8
20260507072524 68 284 7.8 11.3 0.00 0.00 0.00 28 1016.1
20260507072156 66 301 6.1 6.1 0.00 0.00 0.00 29 1016.1
20260507072025 67 276 8.7 11.3 0.00 0.00 0.00 30 1016.2
20260507071653 65 291 9.6 10.4 0.00 0.00 0.00 32 1016.0
20260507071503 67 268 7.8 8.7 0.00 0.00 0.00 34 1016.0
20260507071149 66 279 7.0 8.7 0.00 0.00 0.00 34 1016.0
20260507071003 68 258 7.8 8.7 0.00 0.00 0.00 34 1016.1
20260507070647 66 249 6.1 6.1 0.00 0.00 0.00 34 1015.8
20260507070503 68 253 7.8 10.4 0.00 0.00 0.00 35 1015.8
20260507070143 66 257 7.0 7.8 0.00 0.00 0.00 35 1016.0
20260507070006 68 254 8.7 10.4 0.00 0.00 0.00 35 1015.8
20260507065640 67 244 7.0 7.8 0.00 0.00 0.00 35 1015.8
20260507065503 68 253 8.7 10.4 0.00 0.00 0.00 35 1015.7
20260507065137 66 256 7.8 8.7 0.00 0.00 0.00 35 1015.7
20260507065004 68 254 7.8 10.4 0.00 0.00 0.00 35 1015.7
20260507064634 66 258 6.1 7.8 0.00 0.00 0.00 35 1015.8
20260507064503 68 255 7.8 10.4 0.00 0.00 0.00 35 1016.0
20260507064133 66 248 7.8 8.7 0.00 0.00 0.00 34 1015.8
20260507064003 68 254 7.8 10.4 0.00 0.00 0.00 34 1015.8
20260507063630 67 268 8.7 10.4 0.00 0.00 0.00 34 1015.7
20260507063503 68 254 7.8 10.4 0.00 0.00 0.00 34 1015.8
20260507063127 67 270 6.1 7.8 0.00 0.00 0.00 33 1015.8
20260507063003 69 256 7.8 10.4 0.00 0.00 0.00 33 1016.0
20260507062623 68 267 5.2 6.1 0.00 0.00 0.00 33 1015.8
20260507062503 70 258 9.6 11.3 0.00 0.00 0.00 33 1015.8
20260507062121 68 248 7.8 8.7 0.00 0.00 0.00 33 1015.8
20260507062005 70 255 8.7 11.3 0.00 0.00 0.00 33 1016.0
20260507061619 68 256 7.0 8.7 0.00 0.00 0.00 33 1015.6
20260507061504 70 250 8.7 11.3 0.00 0.00 0.00 33 1015.7
20260507061117 68 247 7.0 8.7 0.00 0.00 0.00 34 1015.6
20260507061003 70 248 8.7 10.4 0.00 0.00 0.00 34 1015.7
20260507060615 68 232 7.8 10.4 0.00 0.00 0.00 34 1015.6
20260507060503 70 247 9.6 13.0 0.00 0.00 0.00 35 1015.6
20260507060111 68 249 9.6 10.4 0.00 0.00 0.00 35 1015.7
20260507060024 70 242 9.6 13.0 0.00 0.00 0.00 35 1015.6
20260507055606 68 249 7.0 7.8 0.00 0.00 0.00 35 1015.5
20260507055503 70 244 9.6 11.3 0.00 0.00 0.00 35 1015.7
20260507055102 68 240 7.8 10.4 0.00 0.00 0.00 35 1015.8
20260507055004 70 247 10.4 13.0 0.00 0.00 0.00 35 1015.8
20260507054558 69 245 9.6 10.4 0.00 0.00 0.00 35 1015.6
20260507054504 71 248 11.3 13.0 0.00 0.00 0.00 35 1015.6
20260507054056 69 243 9.6 10.4 0.00 0.00 0.00 34 1015.8
20260507054003 71 245 11.3 13.9 0.00 0.00 0.00 34 1015.7
20260507053553 69 242 9.6 11.3 0.00 0.00 0.00 34 1015.6
20260507053503 71 241 11.3 13.9 0.00 0.00 0.00 34 1015.6
20260507053052 69 231 8.7 10.4 0.00 0.00 0.00 35 1015.7
20260507053003 71 242 10.4 13.9 0.00 0.00 0.00 35 1015.7
20260507052549 69 232 9.6 11.3 0.00 0.00 0.00 35 1015.9
20260507052503 71 241 10.4 13.9 0.00 0.00 0.00 35 1016.0
20260507052046 69 247 7.0 8.7 0.00 0.00 0.00 35 1015.5
20260507052003 71 243 12.2 15.6 0.00 0.00 0.00 35 1015.7
20260507051543 69 240 13.0 13.9 0.00 0.00 0.00 35 1015.6
20260507051505 71 245 13.9 15.6 0.00 0.00 0.00 35 1015.6
20260507051040 70 249 10.4 13.0 0.00 0.00 0.00 35 1015.9
20260507051004 71 244 13.9 16.5 0.00 0.00 0.00 35 1016.0
20260507050537 70 239 11.3 13.9 0.00 0.00 0.00 35 1015.7
20260507050504 71 242 13.0 16.5 0.00 0.00 0.00 35 1015.7
20260507050033 70 241 10.4 13.0 0.00 0.00 0.00 34 1015.5
20260507050004 72 243 12.2 13.9 0.00 0.00 0.00 34 1015.6
20260507045530 70 246 10.4 11.3 0.00 0.00 0.00 34 1015.6
20260507045504 72 246 12.2 16.5 0.00 0.00 0.00 34 1015.6
20260507045027 70 242 7.8 8.7 0.00 0.00 0.00 34 1015.6
20260507045004 72 242 13.0 16.5 0.00 0.00 0.00 34 1015.6
20260507044525 72 238 13.0 16.5 0.00 0.00 0.00 34 1015.6
20260507044021 70 259 11.3 13.0 0.00 0.00 0.00 34 1015.8
20260507044003 72 239 12.2 16.5 0.00 0.00 0.00 34 1015.7
20260507043516 70 256 8.7 10.4 0.00 0.00 0.00 34 1015.5
20260507043503 72 240 12.2 15.6 0.00 0.00 0.00 34 1015.5
20260507043014 70 248 11.3 11.3 0.00 0.00 0.00 34 1015.6
20260507043003 72 239 12.2 13.9 0.00 0.00 0.00 34 1015.6
20260507042510 71 250 9.6 11.3 0.00 0.00 0.00 33 1015.3
20260507042503 72 235 13.0 15.6 0.00 0.00 0.00 33 1015.4
20260507042005 71 246 12.2 13.0 0.00 0.00 0.00 33 1015.3
20260507042003 72 236 13.0 15.6 0.00 0.00 0.00 33 1015.4
20260507041504 73 240 13.0 16.5 0.00 0.00 0.00 33 1015.5
20260507041024 73 239 12.2 16.5 0.00 0.00 0.00 33 1015.5
20260507041000 71 230 11.3 13.0 0.00 0.00 0.00 33 1015.3
20260507040503 73 237 10.4 13.0 0.00 0.00 0.00 33 1015.4
20260507040455 71 245 9.6 11.3 0.00 0.00 0.00 33 1015.5
20260507040003 73 235 11.3 15.6 0.00 0.00 0.00 33 1015.5
20260507035951 71 245 10.4 11.3 0.00 0.00 0.00 33 1015.5
20260507035503 74 237 12.2 15.6 0.00 0.00 0.00 32 1015.4
20260507035448 72 247 7.0 8.7 0.00 0.00 0.00 32 1015.2
20260507035003 74 234 11.3 15.6 0.00 0.00 0.00 32 1015.4
20260507034945 72 214 7.0 8.7 0.00 0.00 0.00 32 1015.1
20260507034505 74 240 8.7 13.9 0.00 0.00 0.00 32 1015.2
20260507034442 72 217 7.8 10.4 0.00 0.00 0.00 31 1015.1
20260507034003 74 249 7.0 11.3 0.00 0.00 0.00 30 1015.0
20260507033940 73 252 10.4 11.3 0.00 0.00 0.00 30 1014.9
20260507033503 74 248 4.3 6.1 0.00 0.00 0.00 28 1015.1
20260507033437 72 255 3.5 5.2 0.00 0.00 0.00 28 1015.1
20260507033003 74 257 3.5 6.1 0.00 0.00 0.00 26 1015.0
20260507032934 73 237 3.5 4.3 0.00 0.00 0.00 24 1014.9
20260507032503 76 282 3.5 3.5 0.00 0.00 0.00 23 1014.7
20260507032431 74 260 2.6 2.6 0.00 0.00 0.00 23 1014.9
20260507032003 76 294 3.5 5.2 0.00 0.00 0.00 23 1015.0
20260507031927 74 289 4.3 4.3 0.00 0.00 0.00 23 1014.9
20260507031504 76 300 4.3 5.2 0.00 0.00 0.00 23 1014.9
20260507031426 74 293 2.6 4.3 0.00 0.00 0.00 23 1014.8
20260507031024 76 302 5.2 5.2 0.00 0.00 0.00 23 1014.9
20260507030921 75 306 3.5 4.3 0.00 0.00 0.00 23 1014.8
20260507030503 76 297 4.3 5.2 0.00 0.00 0.00 23 1015.0
20260507030418 75 305 4.3 5.2 0.00 0.00 0.00 23 1014.7
20260507030003 76 297 4.3 5.2 0.00 0.00 0.00 23 1014.6
20260507025915 75 283 4.3 4.3 0.00 0.00 0.00 23 1014.6
20260507025503 77 302 4.3 6.1 0.00 0.00 0.00 23 1014.6
20260507025412 75 293 2.6 4.3 0.00 0.00 0.00 23 1014.8
20260507025003 77 301 5.2 6.1 0.00 0.00 0.00 23 1014.6
20260507024910 75 291 4.3 5.2 0.00 0.00 0.00 23 1014.6
20260507024503 78 297 5.2 6.1 0.00 0.00 0.00 22 1014.4
20260507024407 76 320 5.2 6.1 0.00 0.00 0.00 22 1014.4
20260507024003 78 297 4.3 6.1 0.00 0.00 0.00 22 1014.4
20260507023903 76 308 4.3 5.2 0.00 0.00 0.00 22 1014.4
20260507023503 78 298 3.5 5.2 0.00 0.00 0.00 22 1014.3
20260507023400 76 300 3.5 4.3 0.00 0.00 0.00 22 1014.5
20260507023003 78 294 3.5 5.2 0.00 0.00 0.00 22 1014.3
20260507022857 77 292 2.6 2.6 0.00 0.00 0.00 22 1014.2
20260507022503 79 305 4.3 6.1 0.00 0.00 0.00 22 1014.3
20260507022354 77 287 1.7 2.6 0.00 0.00 0.00 22 1014.3
20260507022024 79 319 5.2 6.1 0.00 0.00 0.00 22 1014.3
20260507021849 77 298 2.6 4.3 0.00 0.00 0.00 22 1014.3
20260507021505 79 334 7.0 10.4 0.00 0.00 0.00 22 1014.3
20260507021345 78 338 6.1 6.1 0.00 0.00 0.00 22 1014.2
20260507021003 79 337 7.0 10.4 0.00 0.00 0.00 22 1014.2
20260507020843 78 334 5.2 6.1 0.00 0.00 0.00 22 1014.2
20260507020503 80 331 6.1 8.7 0.00 0.00 0.00 22 1014.5
20260507020339 78 323 6.1 6.1 0.00 0.00 0.00 22 1014.3
20260507020003 80 315 4.3 8.7 0.00 0.00 0.00 22 1014.3
20260507015836 79 359 5.2 6.1 0.00 0.00 0.00 22 1014.3
20260507015503 81 296 2.6 5.2 0.00 0.00 0.00 22 1014.1
20260507015334 78 274 1.7 2.6 0.00 0.00 0.00 22 1014.2
20260507015004 81 302 3.5 6.1 0.00 0.00 0.00 22 1014.2
20260507014831 79 260 0.9 1.7 0.00 0.00 0.00 22 1014.0
20260507014504 80 315 5.2 7.8 0.00 0.00 0.00 22 1014.1
20260507014327 79 323 4.3 4.3 0.00 0.00 0.00 22 1014.0
20260507014004 80 332 6.1 10.4 0.00 0.00 0.00 22 1014.1
20260507013824 78 334 3.5 4.3 0.00 0.00 0.00 22 1014.2
20260507013503 80 334 7.8 13.9 0.00 0.00 0.00 22 1014.3
20260507013321 78 310 3.5 4.3 0.00 0.00 0.00 22 1014.3
20260507013003 80 344 10.4 13.9 0.00 0.00 0.00 22 1014.4
20260507012819 79 320 5.2 6.1 0.00 0.00 0.00 22 1014.3
20260507012503 80 351 11.3 13.9 0.00 0.00 0.00 22 1014.3
20260507012314 79 356 11.3 13.0 0.00 0.00 0.00 22 1014.0
20260507012003 81 350 9.6 13.9 0.00 0.00 0.00 22 1014.2
20260507011812 79 14 7.8 10.4 0.00 0.00 0.00 21 1014.2
20260507011505 81 332 8.7 13.9 0.00 0.00 0.00 21 1014.0
20260507011309 79 336 5.2 7.8 0.00 0.00 0.00 21 1014.3
20260507011003 81 305 6.1 13.9 0.00 0.00 0.00 21 1014.1
20260507010808 80 307 10.4 13.0 0.00 0.00 0.00 21 1014.3
20260507010503 81 325 6.1 11.3 0.00 0.00 0.00 21 1014.2
20260507010304 79 264 1.7 2.6 0.00 0.00 0.00 21 1014.0
20260507010003 80 324 7.0 11.3 0.00 0.00 0.00 21 1014.1
20260507005802 79 333 5.2 5.2 0.00 0.00 0.00 21 1014.2
20260507005503 81 335 6.1 11.3 0.00 0.00 0.00 21 1014.2
20260507005258 80 282 4.3 5.2 0.00 0.00 0.00 21 1014.0
20260507005003 81 353 6.1 13.0 0.00 0.00 0.00 21 1014.1
20260507004755 79 38 3.5 4.3 0.00 0.00 0.00 21 1014.2
20260507004503 81 345 9.6 16.5 0.00 0.00 0.00 22 1014.3
20260507004252 79 344 6.1 6.1 0.00 0.00 0.00 22 1014.3
20260507004004 81 345 12.2 16.5 0.00 0.00 0.00 22 1014.1
20260507003748 79 335 13.9 16.5 0.00 0.00 0.00 21 1014.2
20260507003503 81 352 12.2 18.2 0.00 0.00 0.00 21 1014.1
20260507003244 79 356 11.3 13.9 0.00 0.00 0.00 21 1014.0
20260507003003 81 7 9.6 18.2 0.00 0.00 0.00 21 1014.2
20260507002740 79 332 6.1 7.8 0.00 0.00 0.00 21 1014.2
20260507002503 81 18 6.1 8.7 0.00 0.00 0.00 22 1014.2
20260507002236 80 43 7.0 7.8 0.00 0.00 0.00 22 1013.9
20260507002003 82 44 5.2 8.7 0.00 0.00 0.00 21 1014.2
20260507001733 80 9 7.0 7.8 0.00 0.00 0.00 21 1014.0
20260507001503 80 87 6.1 11.3 0.00 0.00 0.00 21 1014.0
20260507001231 78 87 6.1 6.1 0.00 0.00 0.00 21 1013.9
20260507001003 80 57 9.6 13.9 0.00 0.00 0.00 21 1014.0
20260507000727 79 71 3.5 6.1 0.00 0.00 0.00 21 1014.2
20260507000504 81 39 10.4 13.9 0.00 0.00 0.00 21 1014.1
20260507000222 79 70 10.4 13.9 0.00 0.00 0.00 21 1013.9
20260507000004 82 29 9.6 13.9 0.00 0.00 0.00 21 1014.2
20260506235720 80 353 2.6 5.2 0.00 0.00 0.00 20 1014.0
20260506235504 82 22 11.3 16.5 0.00 0.00 0.00 20 1014.0
20260506235215 80 26 7.8 8.7 0.00 0.00 0.00 20 1014.2
20260506235004 82 11 11.3 16.5 0.00 0.00 0.00 20 1014.0
20260506234712 80 60 7.8 8.7 0.00 0.00 0.00 21 1013.9
20260506234524 82 2 7.8 15.6 0.00 0.00 0.00 20 1014.0
20260506234209 80 323 4.3 7.8 0.00 0.00 0.00 22 1013.6
20260506234003 81 339 5.2 10.4 0.00 0.00 0.00 22 1014.0
20260506233707 80 274 1.7 2.6 0.00 0.00 0.00 22 1014.0
20260506233526 82 352 6.1 10.4 0.00 0.00 0.00 22 1014.1
20260506233203 79 335 4.3 6.1 0.00 0.00 0.00 22 1014.0
20260506233024 81 18 8.7 16.5 0.00 0.00 0.00 23 1014.0
20260506232659 79 9 4.3 5.2 0.00 0.00 0.00 23 1013.8
20260506232503 81 23 10.4 16.5 0.00 0.00 0.00 23 1014.1
20260506232154 80 18 6.1 7.8 0.00 0.00 0.00 22 1014.0
20260506232003 81 14 7.8 13.0 0.00 0.00 0.00 22 1014.2
20260506231652 79 42 7.8 8.7 0.00 0.00 0.00 22 1014.2
20260506231524 81 30 7.8 13.0 0.00 0.00 0.00 22 1014.0
20260506231151 79 76 2.6 4.3 0.00 0.00 0.00 22 1014.0
20260506231024 80 44 7.8 13.9 0.00 0.00 0.00 22 1014.2
20260506230647 79 44 11.3 11.3 0.00 0.00 0.00 22 1014.0
20260506230504 81 27 7.0 13.9 0.00 0.00 0.00 22 1014.2
20260506230144 80 359 6.1 7.8 0.00 0.00 0.00 22 1014.4
20260506230003 82 37 6.1 13.0 0.00 0.00 0.00 22 1014.2
20260506225640 79 44 6.1 6.1 0.00 0.00 0.00 23 1014.3
20260506225524 81 50 5.2 8.7 0.00 0.00 0.00 23 1014.3
20260506225137 79 108 3.5 4.3 0.00 0.00 0.00 23 1014.2
20260506225003 81 41 6.1 8.7 0.00 0.00 0.00 23 1014.3
20260506224634 79 5 4.3 5.2 0.00 0.00 0.00 23 1014.5
20260506224503 81 49 8.7 16.5 0.00 0.00 0.00 23 1014.2
20260506224130 78 33 6.1 7.8 0.00 0.00 0.00 24 1014.3
20260506224003 80 55 11.3 16.5 0.00 0.00 0.00 23 1014.3
20260506223626 78 40 7.8 8.7 0.00 0.00 0.00 23 1014.4
20260506223504 80 47 11.3 16.5 0.00 0.00 0.00 23 1014.5
20260506223122 78 37 4.3 6.1 0.00 0.00 0.00 23 1014.3
20260506223003 81 25 11.3 16.5 0.00 0.00 0.00 23 1014.4
20260506222620 78 254 6.1 6.1 0.00 0.00 0.00 25 1014.6
20260506222116 78 254 6.1 6.1 0.00 0.00 0.00 25 1014.6
20260506222003 80 322 8.7 13.0 0.00 0.00 0.00 25 1014.6
20260506221614 78 358 5.2 6.1 0.00 0.00 0.00 24 1014.7
20260506221504 79 340 7.8 13.0 0.00 0.00 0.00 24 1014.6
20260506221112 78 334 11.3 13.0 0.00 0.00 0.00 24 1014.7
20260506221003 80 339 9.6 15.6 0.00 0.00 0.00 24 1014.4
20260506220608 78 104 1.7 2.6 0.00 0.00 0.00 25 1014.9
20260506220503 80 341 10.4 15.6 0.00 0.00 0.00 24 1015.0
20260506220003 80 358 7.8 13.9 0.00 0.00 0.00 24 1015.0
20260506215600 79 359 8.7 10.4 0.00 0.00 0.00 24 1014.8
20260506215503 80 8 7.0 13.0 0.00 0.00 0.00 24 1014.9
20260506215055 77 28 1.7 2.6 0.00 0.00 0.00 25 1015.1
20260506215003 79 4 10.4 13.9 0.00 0.00 0.00 25 1015.2
20260506214553 78 341 8.7 10.4 0.00 0.00 0.00 25 1015.1
20260506214503 80 359 11.3 16.5 0.00 0.00 0.00 25 1015.2
20260506214050 77 348 11.3 13.9 0.00 0.00 0.00 24 1015.1
20260506214003 79 359 10.4 16.5 0.00 0.00 0.00 25 1015.2
20260506213548 78 66 5.2 7.8 0.00 0.00 0.00 25 1014.9
20260506213505 80 3 9.6 16.5 0.00 0.00 0.00 25 1015.0
20260506213045 78 353 13.9 15.6 0.00 0.00 0.00 25 1015.2
20260506213003 80 354 8.7 16.5 0.00 0.00 0.00 25 1015.3
20260506212542 77 3 7.8 8.7 0.00 0.00 0.00 25 1015.0
20260506212503 79 343 8.7 16.5 0.00 0.00 0.00 25 1015.1
20260506212037 77 19 4.3 6.1 0.00 0.00 0.00 25 1015.5
20260506212024 79 331 7.8 11.3 0.00 0.00 0.00 25 1015.5
20260506211533 77 332 9.6 10.4 0.00 0.00 0.00 25 1015.5
20260506211503 79 344 6.1 11.3 0.00 0.00 0.00 25 1015.5
20260506211030 78 91 4.3 6.1 0.00 0.00 0.00 25 1015.3
20260506211003 80 42 4.3 6.1 0.00 0.00 0.00 25 1015.4
20260506210526 77 46 4.3 5.2 0.00 0.00 0.00 25 1015.5
20260506210504 79 19 6.1 11.3 0.00 0.00 0.00 25 1015.5
20260506210023 76 49 3.5 5.2 0.00 0.00 0.00 25 1015.5
20260506210003 78 336 8.7 13.9 0.00 0.00 0.00 25 1015.5
20260506205520 76 347 7.8 10.4 0.00 0.00 0.00 26 1015.5
20260506205503 78 325 9.6 13.9 0.00 0.00 0.00 26 1015.5
20260506205015 77 344 5.2 6.1 0.00 0.00 0.00 25 1015.6
20260506205003 78 328 8.7 11.3 0.00 0.00 0.00 25 1015.6
20260506204514 76 337 7.0 7.8 0.00 0.00 0.00 26 1015.6
20260506204503 78 326 8.7 13.9 0.00 0.00 0.00 26 1015.6
20260506204010 76 300 7.0 8.7 0.00 0.00 0.00 26 1015.8
20260506204003 78 20 7.8 13.9 0.00 0.00 0.00 26 1015.7
20260506203508 75 48 5.2 6.1 0.00 0.00 0.00 25 1015.8
20260506203024 78 105 6.1 10.4 0.00 0.00 0.00 26 1015.6
20260506203004 76 58 7.0 7.8 0.00 0.00 0.00 26 1015.6
20260506202503 77 86 7.8 13.0 0.00 0.00 0.00 26 1015.4
20260506202003 76 37 8.7 13.9 0.00 0.00 0.00 27 1015.8
20260506201958 74 73 6.1 6.1 0.00 0.00 0.00 27 1015.7
20260506201503 77 336 8.7 13.9 0.00 0.00 0.00 27 1016.0
20260506201456 75 59 7.0 8.7 0.00 0.00 0.00 26 1015.8
20260506201024 76 331 8.7 13.9 0.00 0.00 0.00 26 1016.1
20260506200952 75 310 8.7 10.4 0.00 0.00 0.00 26 1015.9
20260506200504 77 351 8.7 13.9 0.00 0.00 0.00 26 1016.2
20260506200449 76 336 10.4 13.0 0.00 0.00 0.00 26 1016.0
20260506200003 77 9 7.8 11.3 0.00 0.00 0.00 26 1016.1
20260506195945 75 10 7.8 10.4 0.00 0.00 0.00 26 1016.0
20260506195503 76 51 7.8 11.3 0.00 0.00 0.00 27 1016.1
20260506195442 74 336 4.3 7.8 0.00 0.00 0.00 27 1016.1
20260506195024 76 59 7.0 10.4 0.00 0.00 0.00 27 1016.2
20260506194938 74 62 7.8 8.7 0.00 0.00 0.00 27 1016.0
20260506194503 77 16 7.8 13.0 0.00 0.00 0.00 26 1016.3
20260506194436 75 18 4.3 5.2 0.00 0.00 0.00 26 1016.2
20260506194024 77 12 9.6 13.0 0.00 0.00 0.00 27 1016.4
20260506193933 75 6 9.6 11.3 0.00 0.00 0.00 26 1016.1
20260506193504 76 14 9.6 13.0 0.00 0.00 0.00 26 1016.2
20260506193430 74 43 7.8 10.4 0.00 0.00 0.00 27 1016.0
20260506193003 75 15 8.7 13.0 0.00 0.00 0.00 28 1016.3
20260506192926 73 34 4.3 5.2 0.00 0.00 0.00 28 1016.3
20260506192524 76 359 6.1 10.4 0.00 0.00 0.00 27 1016.3
20260506192423 74 334 7.8 8.7 0.00 0.00 0.00 27 1016.2
20260506192003 75 350 6.1 13.0 0.00 0.00 0.00 27 1016.3
20260506191920 74 305 6.1 7.8 0.00 0.00 0.00 27 1016.3
20260506191503 75 333 7.8 13.9 0.00 0.00 0.00 27 1016.4
20260506191417 73 351 6.1 7.8 0.00 0.00 0.00 28 1016.3
20260506191003 75 337 8.7 13.9 0.00 0.00 0.00 27 1016.4
20260506190914 73 342 5.2 6.1 0.00 0.00 0.00 28 1016.4
20260506190503 74 350 11.3 15.6 0.00 0.00 0.00 28 1016.5
20260506190410 73 358 7.0 8.7 0.00 0.00 0.00 28 1016.4
20260506190005 74 3 11.3 15.6 0.00 0.00 0.00 28 1016.5
20260506185907 73 7 10.4 13.0 0.00 0.00 0.00 28 1016.4
20260506185504 74 15 9.6 15.6 0.00 0.00 0.00 28 1016.6
20260506185404 72 352 11.3 15.6 0.00 0.00 0.00 27 1016.5
20260506185003 74 5 7.8 13.9 0.00 0.00 0.00 29 1016.6
20260506184901 72 11 9.6 11.3 0.00 0.00 0.00 29 1016.6
20260506184504 74 357 7.0 11.3 0.00 0.00 0.00 29 1016.6
20260506184358 72 341 6.1 7.8 0.00 0.00 0.00 29 1016.4
20260506184003 74 10 8.7 11.3 0.00 0.00 0.00 29 1016.7
20260506183855 72 351 9.6 11.3 0.00 0.00 0.00 28 1016.6
20260506183504 73 10 7.8 11.3 0.00 0.00 0.00 29 1016.6
20260506183350 72 23 4.3 5.2 0.00 0.00 0.00 29 1016.5
20260506183025 73 355 7.8 11.3 0.00 0.00 0.00 30 1016.7
20260506182848 72 15 7.8 8.7 0.00 0.00 0.00 30 1016.6
20260506182503 73 339 7.8 13.0 0.00 0.00 0.00 29 1016.5
20260506182345 71 284 5.2 6.1 0.00 0.00 0.00 29 1016.6
20260506182003 74 339 7.8 13.9 0.00 0.00 0.00 29 1016.7
20260506181842 70 2 10.4 13.0 0.00 0.00 0.00 29 1016.6
20260506181503 72 339 7.8 13.9 0.00 0.00 0.00 30 1016.8
20260506181340 70 314 10.4 11.3 0.00 0.00 0.00 30 1016.9
20260506181003 73 346 8.7 13.9 0.00 0.00 0.00 30 1016.8
20260506180837 70 322 7.0 8.7 0.00 0.00 0.00 30 1016.6
20260506180503 72 335 9.6 13.9 0.00 0.00 0.00 30 1016.7
20260506180333 70 324 7.8 8.7 0.00 0.00 0.00 31 1016.4
20260506180004 71 316 10.4 13.0 0.00 0.00 0.00 31 1016.7
20260506175829 69 298 7.8 8.7 0.00 0.00 0.00 31 1016.6
20260506175503 71 325 10.4 13.9 0.00 0.00 0.00 32 1016.8
20260506175327 69 330 11.3 13.0 0.00 0.00 0.00 32 1016.8
20260506175003 71 336 10.4 13.9 0.00 0.00 0.00 32 1016.7
20260506174824 69 345 4.3 5.2 0.00 0.00 0.00 32 1016.5
20260506174503 70 335 12.2 15.6 0.00 0.00 0.00 33 1016.7
20260506174321 68 323 10.4 11.3 0.00 0.00 0.00 33 1016.8
20260506174003 70 341 12.2 15.6 0.00 0.00 0.00 32 1016.7
20260506173818 69 334 8.7 10.4 0.00 0.00 0.00 32 1016.6
20260506173503 70 340 12.2 15.6 0.00 0.00 0.00 32 1016.7
20260506173315 68 335 8.7 10.4 0.00 0.00 0.00 33 1016.8
20260506173025 70 339 13.0 15.6 0.00 0.00 0.00 34 1016.8
20260506172812 68 292 8.7 13.0 0.00 0.00 0.00 33 1016.8
20260506172503 69 333 12.2 16.5 0.00 0.00 0.00 33 1016.8
20260506172309 67 336 11.3 13.0 0.00 0.00 0.00 34 1016.6
20260506172003 68 332 11.3 16.5 0.00 0.00 0.00 34 1016.8
20260506171806 66 314 9.6 13.0 0.00 0.00 0.00 35 1016.5
20260506171503 69 331 12.2 15.6 0.00 0.00 0.00 34 1016.7
20260506171303 67 338 13.9 15.6 0.00 0.00 0.00 35 1016.5
20260506171003 68 327 13.9 16.5 0.00 0.00 0.00 36 1016.6
20260506170801 65 310 8.7 10.4 0.00 0.00 0.00 36 1016.4
20260506170504 68 325 14.8 16.5 0.00 0.00 0.00 36 1016.5
20260506170257 66 325 13.0 15.6 0.00 0.00 0.00 35 1016.4
20260506170005 68 322 13.9 16.5 0.00 0.00 0.00 35 1016.5
20260506165756 66 320 14.8 15.6 0.00 0.00 0.00 35 1016.4
20260506165504 68 322 13.9 16.5 0.00 0.00 0.00 36 1016.4
20260506165253 66 336 8.7 11.3 0.00 0.00 0.00 36 1016.4
20260506165004 68 325 13.9 16.5 0.00 0.00 0.00 35 1016.4
20260506164749 65 344 12.2 13.9 0.00 0.00 0.00 37 1016.4
20260506164504 67 331 14.8 16.5 0.00 0.00 0.00 37 1016.5
20260506164246 65 321 13.0 13.9 0.00 0.00 0.00 36 1016.3
20260506164025 67 328 13.9 16.5 0.00 0.00 0.00 37 1016.5
20260506163743 65 327 12.2 15.6 0.00 0.00 0.00 36 1016.4
20260506163503 67 325 13.0 16.5 0.00 0.00 0.00 36 1016.4
20260506163238 65 318 13.0 15.6 0.00 0.00 0.00 37 1016.3
20260506163005 66 322 13.0 16.5 0.00 0.00 0.00 37 1016.3
20260506162734 64 290 11.3 15.6 0.00 0.00 0.00 38 1016.2
20260506162503 66 318 13.9 16.5 0.00 0.00 0.00 39 1016.3
20260506162232 63 325 14.8 16.5 0.00 0.00 0.00 38 1016.4
20260506162024 65 324 13.9 16.5 0.00 0.00 0.00 40 1016.4
20260506161729 63 305 13.0 15.6 0.00 0.00 0.00 40 1016.3
20260506161524 65 329 13.9 16.5 0.00 0.00 0.00 41 1016.2
20260506161226 63 331 12.2 15.6 0.00 0.00 0.00 40 1016.2
20260506161003 65 333 13.0 15.6 0.00 0.00 0.00 40 1016.3
20260506160724 62 338 10.4 11.3 0.00 0.00 0.00 41 1016.3
20260506160503 64 331 12.2 15.6 0.00 0.00 0.00 41 1016.3
20260506160220 62 332 8.7 11.3 0.00 0.00 0.00 41 1016.2
20260506160004 64 321 12.2 15.6 0.00 0.00 0.00 42 1016.2
20260506155719 62 346 5.2 7.8 0.00 0.00 0.00 42 1016.2
20260506155524 64 316 11.3 13.9 0.00 0.00 0.00 42 1016.1
20260506155216 62 336 8.7 10.4 0.00 0.00 0.00 41 1016.3
20260506155003 64 317 11.3 13.9 0.00 0.00 0.00 40 1016.1
20260506154503 63 306 11.3 13.9 0.00 0.00 0.00 42 1016.2
20260506154024 63 302 11.3 13.0 0.00 0.00 0.00 42 1016.1
20260506153503 62 308 11.3 15.6 0.00 0.00 0.00 43 1016.2
20260506153323 60 297 10.4 11.3 0.00 0.00 0.00 43 1016.1
20260506153025 62 312 10.4 15.6 0.00 0.00 0.00 43 1016.1
20260506152820 61 326 11.3 13.9 0.00 0.00 0.00 43 1016.0
20260506152503 62 309 10.4 13.0 0.00 0.00 0.00 44 1016.0
20260506152317 60 324 8.7 10.4 0.00 0.00 0.00 44 1016.1
20260506152003 62 309 9.6 13.0 0.00 0.00 0.00 44 1016.1
20260506151816 60 309 9.6 10.4 0.00 0.00 0.00 44 1016.1
20260506151503 61 308 9.6 13.0 0.00 0.00 0.00 44 1016.2
20260506151312 59 312 9.6 10.4 0.00 0.00 0.00 45 1016.0
20260506151024 61 304 9.6 11.3 0.00 0.00 0.00 45 1016.4
20260506150809 59 320 6.1 6.1 0.00 0.00 0.00 46 1016.0
20260506150503 61 300 10.4 13.0 0.00 0.00 0.00 45 1016.1
20260506150306 59 300 9.6 11.3 0.00 0.00 0.00 46 1016.0
20260506150005 60 301 10.4 13.0 0.00 0.00 0.00 47 1016.0
20260506145803 58 296 6.1 7.8 0.00 0.00 0.00 48 1016.1
20260506145503 60 305 9.6 13.0 0.00 0.00 0.00 48 1016.2
20260506145259 58 297 9.6 10.4 0.00 0.00 0.00 48 1016.2
20260506145003 59 311 11.3 15.6 0.00 0.00 0.00 48 1016.3
20260506144757 57 291 6.1 6.1 0.00 0.00 0.00 50 1016.1
20260506144503 59 312 12.2 15.6 0.00 0.00 0.00 49 1016.2
20260506144254 57 321 9.6 13.0 0.00 0.00 0.00 49 1015.9
20260506144003 58 303 11.3 13.9 0.00 0.00 0.00 50 1016.2
20260506143752 57 308 7.8 11.3 0.00 0.00 0.00 50 1016.2
20260506143524 58 303 12.2 15.6 0.00 0.00 0.00 50 1016.0
20260506143248 56 284 8.7 10.4 0.00 0.00 0.00 51 1015.9
20260506143003 58 306 12.2 15.6 0.00 0.00 0.00 51 1016.0
20260506142747 56 305 12.2 13.0 0.00 0.00 0.00 51 1016.0
20260506142503 58 305 13.0 16.5 0.00 0.00 0.00 51 1016.2
20260506142245 56 299 12.2 13.9 0.00 0.00 0.00 52 1016.0
20260506142003 57 303 12.2 16.5 0.00 0.00 0.00 52 1016.2
20260506141743 55 303 9.6 10.4 0.00 0.00 0.00 52 1015.9
20260506141524 57 307 11.3 15.6 0.00 0.00 0.00 53 1016.0
20260506141241 55 291 9.6 11.3 0.00 0.00 0.00 54 1015.9
20260506141003 56 312 9.6 13.0 0.00 0.00 0.00 54 1016.1
20260506140738 54 326 7.0 7.8 0.00 0.00 0.00 54 1015.8
20260506140503 56 309 10.4 13.0 0.00 0.00 0.00 54 1016.0
20260506140235 54 311 8.7 10.4 0.00 0.00 0.00 55 1015.8
20260506140003 55 314 9.6 13.0 0.00 0.00 0.00 56 1015.7
20260506135732 53 323 7.0 8.7 0.00 0.00 0.00 56 1015.6
20260506135504 55 317 8.7 11.3 0.00 0.00 0.00 56 1015.8
20260506135228 53 344 6.1 7.8 0.00 0.00 0.00 56 1015.7
20260506135004 54 315 8.7 11.3 0.00 0.00 0.00 57 1015.5
20260506134725 52 305 6.1 6.1 0.00 0.00 0.00 57 1015.6
20260506134504 54 310 7.0 10.4 0.00 0.00 0.00 58 1015.6
20260506134221 52 312 6.1 6.1 0.00 0.00 0.00 58 1015.3
20260506134003 54 306 6.1 7.8 0.00 0.00 0.00 58 1015.6
20260506133719 52 306 7.0 7.8 0.00 0.00 0.00 58 1015.6
20260506133505 54 304 6.1 7.8 0.00 0.00 0.00 58 1015.5
20260506133215 52 310 4.3 5.2 0.00 0.00 0.00 59 1015.3
20260506133003 53 300 7.0 7.8 0.00 0.00 0.00 59 1015.5
20260506132712 51 289 6.1 6.1 0.00 0.00 0.00 59 1015.5
20260506132503 53 302 7.0 8.7 0.00 0.00 0.00 59 1015.3
20260506132209 51 302 5.2 6.1 0.00 0.00 0.00 59 1015.3
20260506132003 53 299 7.0 8.7 0.00 0.00 0.00 60 1015.4
20260506131707 51 306 6.1 6.1 0.00 0.00 0.00 60 1015.2
20260506131503 53 293 7.8 8.7 0.00 0.00 0.00 60 1015.4
20260506131203 51 299 8.7 8.7 0.00 0.00 0.00 60 1015.3
20260506131003 53 294 7.8 13.9 0.00 0.00 0.00 60 1015.2
20260506130700 51 287 6.1 7.8 0.00 0.00 0.00 59 1015.2
20260506130503 53 295 8.7 13.9 0.00 0.00 0.00 59 1015.2
20260506130157 51 301 7.8 8.7 0.00 0.00 0.00 60 1015.1
20260506130003 53 297 8.7 13.0 0.00 0.00 0.00 59 1015.1
20260506125655 51 310 7.0 7.8 0.00 0.00 0.00 60 1015.0
20260506125503 53 302 9.6 13.9 0.00 0.00 0.00 60 1015.2
20260506125153 51 312 7.0 8.7 0.00 0.00 0.00 59 1015.0
20260506125003 53 308 12.2 15.6 0.00 0.00 0.00 59 1015.1
20260506124650 52 304 12.2 13.9 0.00 0.00 0.00 58 1015.0
20260506124524 53 310 13.0 18.2 0.00 0.00 0.00 58 1015.1
20260506124148 52 305 11.3 15.6 0.00 0.00 0.00 58 1014.7
20260506124003 54 306 13.9 18.2 0.00 0.00 0.00 58 1014.7
20260506123645 52 304 12.2 15.6 0.00 0.00 0.00 57 1014.8
20260506123504 54 306 13.9 18.2 0.00 0.00 0.00 57 1014.9
20260506123144 52 297 10.4 13.0 0.00 0.00 0.00 58 1014.7
20260506123003 53 309 13.9 16.5 0.00 0.00 0.00 58 1014.7
20260506122640 52 311 11.3 13.9 0.00 0.00 0.00 58 1014.8
20260506122503 54 310 13.9 16.5 0.00 0.00 0.00 58 1014.7
20260506122138 52 308 13.0 15.6 0.00 0.00 0.00 58 1014.7
20260506122004 53 314 13.9 18.2 0.00 0.00 0.00 58 1014.9
20260506121635 52 325 12.2 15.6 0.00 0.00 0.00 58 1014.5
20260506121504 54 321 13.9 18.2 0.00 0.00 0.00 58 1014.6
20260506121131 52 285 12.2 13.0 0.00 0.00 0.00 58 1014.6
20260506121004 54 323 13.9 18.2 0.00 0.00 0.00 58 1014.6
20260506120630 52 340 11.3 11.3 0.00 0.00 0.00 58 1014.7
20260506120505 54 320 15.6 18.2 0.00 0.00 0.00 58 1014.9
20260506120127 52 318 11.3 13.0 0.00 0.00 0.00 57 1014.6
20260506120025 54 317 15.6 19.1 0.00 0.00 0.00 57 1014.5
20260506115625 52 318 12.2 16.5 0.00 0.00 0.00 57 1014.4
20260506115503 54 318 16.5 19.1 0.00 0.00 0.00 57 1014.7
20260506115123 52 322 13.9 16.5 0.00 0.00 0.00 57 1014.6
20260506115003 54 316 15.6 19.1 0.00 0.00 0.00 57 1014.6
20260506114620 52 325 14.8 18.2 0.00 0.00 0.00 56 1014.6
20260506114503 54 319 13.9 18.2 0.00 0.00 0.00 57 1014.6
20260506114118 52 321 14.8 16.5 0.00 0.00 0.00 57 1014.7
20260506114024 54 317 13.0 16.5 0.00 0.00 0.00 57 1014.7
20260506113616 52 311 8.7 8.7 0.00 0.00 0.00 57 1014.7
20260506113504 54 313 13.0 15.6 0.00 0.00 0.00 57 1014.6
20260506113113 52 310 8.7 11.3 0.00 0.00 0.00 56 1014.4
20260506113024 54 311 13.0 15.6 0.00 0.00 0.00 56 1014.4
20260506112609 52 311 13.0 13.9 0.00 0.00 0.00 56 1014.6
20260506112503 54 309 12.2 15.6 0.00 0.00 0.00 56 1014.5
20260506112107 52 314 11.3 13.0 0.00 0.00 0.00 56 1014.6
20260506112003 54 308 11.3 13.9 0.00 0.00 0.00 56 1014.6
20260506111604 52 330 8.7 10.4 0.00 0.00 0.00 56 1014.6
20260506111504 54 308 11.3 13.0 0.00 0.00 0.00 56 1014.6
20260506111102 52 297 8.7 10.4 0.00 0.00 0.00 56 1014.4
20260506111003 54 310 13.9 19.1 0.00 0.00 0.00 56 1014.4
20260506110559 53 294 14.8 15.6 0.00 0.00 0.00 55 1014.3
20260506110505 54 313 15.6 19.1 0.00 0.00 0.00 55 1014.3
20260506110056 53 325 10.4 13.0 0.00 0.00 0.00 55 1014.2
20260506110003 54 308 15.6 18.2 0.00 0.00 0.00 55 1014.2